PulseSat

PulseSat

MOLNIYA 1-87

Last updated on Dec. 6, 2018, 12:08 a.m. UTC

1 22949U 93079A   18339.05971528  .00000297  00000-0  13508-1 0  9991
2 22949  63.2348 238.5323 7112578 290.6133  10.4444  2.02845804183119
UTC
Height (km)
Latitude
Longitude
Inclination
Orbital Period

Next 30 passes for location: Hong Kong

Rise time Rise Azimuth (degrees) Set time Set Azimuth (degrees) Duration Max altitude (degrees)

No matching passes for this satellites

PulseSat

PulseSat is the new satellites software and hardware trackering solution by Pulsely.
Satellite Two Line Element Set source: US Air Force Space Command

Download PulseSat for iOS
© 2017 Pulsely Limited